Location: B�rgermoos
(47.6500°N, 9.0667°E)
Time: 00:15:12
(UTC+00:00)

Tiros 1 - Pass Details

Date: 09 August 2021
Orbit: 630 x 663 km, 48.4° (Epoch: 19 September)

Event Time Altitude Azimuth Distance (km) Brightness Sun altitude
Rises 19:48:50 0° 286° (WNW) 2,984 12.1 -9.9°
Reaches altitude 10° 19:51:20 10° 278° (W) 2,065 10.8 -10.3°
Maximum altitude 19:55:42 37° 212° (SSW) 1,020 8.1 -10.9°
Enters shadow 19:59:16 14° 150° (SSE) 1,786 8.8 -11.3°
Drops below altitude 10° 20:00:00 10° 146° (SE) 2,037 - -11.4°
Sets 20:02:26 0° 138° (SE) 2,938 - -11.7°
